[[{"header":{"parameterUnit":"m.s-1","parameterCategory":1,"la1":30.2991,"la2":30.254,"lo1":-89.0895,"lo2":-89.0444,"dy":0.0017,"dx":0.0017,"nx":28,"ny":28,"refTime":"2023-09-07T09:00:00:Z","depth":0,"parameterNumber":2,"parameterNumberName":"U-component_of_WINDS"},"data":[0,0,0,0,0,0,0,0,0,0,0,0,0,0,0,0,0,0,0,0,0,0,0,0,0,0,0,0,0,0,0,0,0,0,0,0,0,0,0,0,0,0,0,0,0,0,0,0,0,0,0,0,0,0,0,0,0,0,3.0464,3.0466,0,3.0602,3.0603,3.0605,3.0557,3.0554,3.0551,3.0548,3.0692,3.0699,3.0706,0,0,0,0,0,0,0,0,0,0,0,0,0,3.0164,3.017,3.0464,3.0466,3.0468,3.0602,3.0603,3.0605,3.0557,3.0554,3.055,3.0546,3.069,3.0698,3.0706,0,0,0,0,0,0,0,0,0,0,0,0,0,3.0297,3.0171,3.0464,3.046,3.0461,3.0601,3.0604,3.0606,3.0558,3.0554,3.0549,3.0545,3.0688,3.0697,3.0707,3.0861,0,0,3.0738,3.0742,0,0,0,0,0,0,0,0,3.029,3.0308,3.0459,3.046,3.0462,3.0557,3.0551,3.0692,3.0559,3.0521,3.0548,3.0542,3.0652,3.0664,3.07,3.0868,3.0874,3.0739,3.0745,3.0749,3.0752,0,0,0,0,0,0,0,3.0281,3.0302,3.0519,3.0461,3.0463,3.0452,3.0466,3.0577,3.0611,3.0524,3.0521,3.0538,3.0651,3.0691,3.0703,3.0876,3.0739,3.0748,3.0754,3.0758,3.1179,3.1184,0,0,0,0,0,0,3.027,3.0295,3.0514,3.0523,3.0362,3.0461,3.0477,3.0531,3.0609,3.0617,3.0542,3.0535,3.0676,3.0692,3.0708,3.0895,3.0749,3.0759,3.0765,3.1174,3.118,3.1186,0,0,0,0,0,0,3.0264,3.029,3.0509,3.0408,3.0435,3.0471,3.0533,3.0537,3.0576,3.0622,3.0628,3.0575,3.0673,3.0694,3.0824,3.0899,3.0763,3.0772,3.1168,3.1176,3.1183,3.1268,0,0,0,0,0,0,3.0255,3.0288,3.0346,3.041,3.0441,3.0621,3.0538,3.0543,3.0593,3.0585,3.0655,3.0663,3.0671,3.0809,3.0834,3.091,3.078,3.1161,3.1172,3.1181,3.1259,3.1278,3.1294,0,0,0,0,0,3.0245,3.0365,3.0349,3.0376,3.0514,3.0625,3.0643,3.0649,3.0599,3.0658,3.0688,3.0661,3.0887,3.0823,3.085,3.0931,3.1157,3.1169,3.118,3.1251,3.1274,3.1294,0,0,0,0,0,0,3.0311,3.0373,3.0356,3.0501,3.0558,3.0617,3.0692,3.0673,3.0747,3.0737,3.0742,3.0759,3.0892,3.0924,3.0852,3.1085,3.1014,3.1032,3.1059,3.1082,3.1099,3.1089,3.0789,0,0,0,0,0,3.0342,3.0426,3.0477,3.0599,3.0629,3.0656,3.0705,3.0704,3.0764,3.0788,3.0828,3.0888,3.0973,3.1029,3.1109,3.1263,3.1279,3.1333,3.135,3.1364,3.138,3.1465,3.149,3.1224,3.1224,3.1224,0,0,3.0407,3.0452,3.0505,3.0614,3.0658,3.0747,3.0676,3.0773,3.0839,3.0803,3.0928,3.096,3.1028,3.117,3.1235,3.1201,3.1457,3.1379,3.139,3.1398,3.148,3.1505,3.1527,3.1232,3.1231,3.1229,0,0,3.0572,3.0614,3.0721,3.0767,3.0834,3.0851,3.0877,3.094,3.0959,3.1084,3.1059,3.1138,3.1284,3.1334,3.1378,3.1562,3.154,3.1589,3.1682,3.1765,3.1785,3.1804,3.1871,3.1895,3.1604,3.1604,3.1604,0,3.0646,3.0777,3.0779,3.0878,3.0927,3.0897,3.1007,3.1051,3.1143,3.1178,3.1138,3.132,3.1364,3.1519,3.1564,3.16,3.1631,3.1581,3.1782,3.1801,3.1818,3.1882,3.1908,3.161,3.1609,3.1608,3.1608,0,3.0865,3.0956,3.1035,3.1122,3.118,3.1284,3.1303,3.1362,3.1356,3.1378,3.1506,3.1558,3.1648,3.1685,3.1681,3.184,3.1817,3.178,3.1709,3.1849,3.191,3.1934,3.1617,3.1615,3.1614,3.1612,0,0,3.1076,3.1163,3.1192,3.1232,3.1304,3.1376,3.1479,3.1566,3.1617,3.1681,3.1769,3.1893,3.1859,3.1909,3.1911,3.1983,3.2128,3.1938,3.1939,3.1972,3.2308,3.2336,3.2365,3.2113,3.2118,3.2121,3.2303,0,3.1248,3.1427,3.1432,3.1597,3.1682,3.1656,3.1745,3.1801,3.1824,3.1901,3.1927,3.2015,3.1963,3.1994,3.2064,3.2095,3.2196,3.2082,3.2197,3.2201,3.2181,3.2396,3.2426,3.2595,3.2326,3.233,3.2333,0,3.1472,3.1542,3.1716,3.1776,3.1813,3.1893,3.1974,3.2048,3.211,3.2122,3.2179,3.2169,3.2276,3.2201,3.2349,3.2272,3.2319,3.2342,3.2348,3.236,3.2276,3.2415,3.2649,3.2674,3.237,3.2367,3.2365,0,3.1611,3.1748,3.187,3.1905,3.1978,3.2036,3.207,3.2127,3.218,3.2251,3.2286,3.2369,3.2415,3.2481,3.2495,3.2439,3.2644,3.257,3.2659,3.2659,3.2704,3.2701,3.295,3.2732,3.2732,3.2731,3.2731,0,3.1803,3.1911,3.1933,3.2008,3.2128,3.2133,3.2252,3.2282,3.2334,3.2415,3.2397,3.2474,3.2487,3.2568,3.258,3.2702,3.2722,3.2736,3.2738,3.2739,3.2737,3.2771,3.276,3.2738,3.2737,3.2735,3.2734,0,3.1979,3.1998,3.2129,3.2188,3.2205,3.2291,3.2342,3.2415,3.2435,3.2539,3.2564,3.2597,3.2691,3.2711,3.2823,3.2831,3.2976,3.2966,3.2955,3.2955,3.3043,3.3035,3.3322,3.3361,3.3117,3.3119,3.3121,0,3.2101,3.2183,3.225,3.2302,3.2339,3.2424,3.2477,3.2485,3.2542,3.2619,3.2683,3.2775,3.2849,3.3001,3.3036,3.3122,3.3115,3.321,3.3128,3.3126,3.3118,3.3114,3.3123,3.3226,3.3228,3.3231,3.3232,0,3.2316,3.2322,3.2398,3.2479,3.2543,3.2608,3.2669,3.2713,3.273,3.2795,3.289,3.2947,3.3061,3.3153,3.3239,3.3275,3.3258,3.3257,3.3283,3.3285,3.3275,3.3283,3.2999,3.3251,3.3249,3.3248,3.3247,3.3246,3.247,3.2542,3.26,3.2687,3.2734,3.2791,3.2863,3.2892,3.2971,3.3063,3.3064,3.3168,3.323,3.3343,3.3384,3.3468,3.3438,3.3474,3.3484,3.3493,3.3502,3.3261,3.3483,3.3483,3.3482,3.3482,3.3481,0,3.2686,3.2722,3.2801,3.2887,3.2956,3.2931,3.2997,3.3057,3.3149,3.3207,3.3279,3.339,3.3479,3.3521,3.361,3.3668,3.3662,3.3691,3.3688,3.3697,3.3522,3.3492,3.3694,3.3694,3.3694,3.3694,3.3694,3.3694,3.2806,3.2927,3.2939,3.3083,3.3119,3.322,3.326,3.3314,3.336,3.3484,3.3557,3.3583,3.3636,3.3728,3.3809,3.382,3.3854,3.3887,3.3894,3.373,3.3709,3.3688,3.366,3.3894,3.3894,3.4061,3.4063,3.4064]},{"header":{"parameterUnit":"m.s-1","parameterCategory":1,"la1":30.2991,"la2":30.254,"lo1":-89.0895,"lo2":-89.0444,"dy":0.0017,"dx":0.0017,"nx":28,"ny":28,"refTime":"2023-09-07T09:00:00:Z","depth":0,"parameterNumber":3,"parameterNumberName":"V-component_of_WINDS"},"data":[0,0,0,0,0,0,0,0,0,0,0,0,0,0,0,0,0,0,0,0,0,0,0,0,0,0,0,0,0,0,0,0,0,0,0,0,0,0,0,0,0,0,0,0,0,0,0,0,0,0,0,0,0,0,0,0,0,0,-1.6983,-1.6984,0,-1.7074,-1.7075,-1.7076,-1.711,-1.711,-1.7109,-1.7109,-1.7203,-1.7205,-1.7208,0,0,0,0,0,0,0,0,0,0,0,0,0,-1.6839,-1.6842,-1.6983,-1.6984,-1.6985,-1.7074,-1.7075,-1.7076,-1.711,-1.711,-1.7109,-1.7109,-1.7202,-1.7205,-1.7208,0,0,0,0,0,0,0,0,0,0,0,0,0,-1.6913,-1.6842,-1.6983,-1.7013,-1.7016,-1.7073,-1.7075,-1.7076,-1.711,-1.711,-1.7109,-1.7109,-1.7201,-1.7205,-1.7209,-1.7243,0,0,-1.7221,-1.7223,0,0,0,0,0,0,0,0,-1.6909,-1.6918,-1.7007,-1.7011,-1.7015,-1.708,-1.7059,-1.7132,-1.711,-1.7074,-1.7109,-1.7108,-1.7162,-1.717,-1.7188,-1.7247,-1.7251,-1.7222,-1.7224,-1.7226,-1.7227,0,0,0,0,0,0,0,-1.6903,-1.6914,-1.7019,-1.7008,-1.7013,-1.7022,-1.7032,-1.7073,-1.712,-1.7077,-1.708,-1.709,-1.7164,-1.7183,-1.719,-1.7253,-1.7222,-1.7225,-1.7228,-1.723,-1.7346,-1.7346,0,0,0,0,0,0,-1.6893,-1.691,-1.7016,-1.7021,-1.696,-1.7025,-1.7036,-1.7059,-1.7119,-1.7128,-1.7091,-1.7092,-1.7177,-1.7185,-1.7193,-1.7238,-1.7226,-1.723,-1.7232,-1.7345,-1.7346,-1.7347,0,0,0,0,0,0,-1.689,-1.6902,-1.7012,-1.6967,-1.6981,-1.7028,-1.7054,-1.7062,-1.7081,-1.7129,-1.7138,-1.7102,-1.7177,-1.7188,-1.7231,-1.7241,-1.7232,-1.7236,-1.7345,-1.7345,-1.7346,-1.7326,0,0,0,0,0,0,-1.6886,-1.6901,-1.6914,-1.6967,-1.6983,-1.7047,-1.7055,-1.7064,-1.7088,-1.709,-1.7142,-1.715,-1.7177,-1.7224,-1.7235,-1.7247,-1.7239,-1.7344,-1.7345,-1.7346,-1.7326,-1.7326,-1.7326,0,0,0,0,0,-1.6881,-1.6905,-1.6915,-1.6927,-1.7001,-1.7048,-1.7058,-1.7088,-1.7088,-1.7102,-1.7134,-1.7148,-1.7238,-1.7228,-1.724,-1.7254,-1.7343,-1.7345,-1.7346,-1.7326,-1.7326,-1.7326,0,0,0,0,0,0,-1.6853,-1.6912,-1.6924,-1.6966,-1.7001,-1.7053,-1.7072,-1.7087,-1.7124,-1.7124,-1.7161,-1.7172,-1.7212,-1.7238,-1.7225,-1.729,-1.7292,-1.7296,-1.7272,-1.7273,-1.7273,-1.7266,-1.7242,0,0,0,0,0,-1.6851,-1.6884,-1.6935,-1.6967,-1.6984,-1.7025,-1.7047,-1.7067,-1.7106,-1.7121,-1.7155,-1.7192,-1.7229,-1.7253,-1.7289,-1.733,-1.7342,-1.7345,-1.7345,-1.7345,-1.7348,-1.7371,-1.7374,-1.7351,-1.7351,-1.7351,0,0,-1.6849,-1.6886,-1.6904,-1.6962,-1.6992,-1.7026,-1.7037,-1.7072,-1.7098,-1.7126,-1.7169,-1.7195,-1.7239,-1.7281,-1.7301,-1.7303,-1.7357,-1.7347,-1.7346,-1.7349,-1.7373,-1.7375,-1.7377,-1.7352,-1.7352,-1.7352,0,0,-1.6862,-1.6893,-1.6923,-1.6953,-1.6999,-1.7026,-1.7033,-1.7083,-1.7101,-1.7145,-1.7167,-1.7198,-1.726,-1.7291,-1.7314,-1.7339,-1.7354,-1.735,-1.7351,-1.7373,-1.7375,-1.7377,-1.7386,-1.7388,-1.7353,-1.7353,-1.7353,0,-1.6853,-1.6904,-1.6937,-1.6971,-1.6995,-1.7023,-1.7054,-1.7082,-1.7137,-1.7154,-1.7155,-1.7234,-1.7266,-1.7315,-1.7321,-1.734,-1.7349,-1.7344,-1.7372,-1.7374,-1.7376,-1.7385,-1.7388,-1.7352,-1.7352,-1.7352,-1.7352,0,-1.6891,-1.6927,-1.6946,-1.6998,-1.7025,-1.7057,-1.7095,-1.7119,-1.7137,-1.7164,-1.7208,-1.7247,-1.7292,-1.7305,-1.7323,-1.7357,-1.7357,-1.7365,-1.7367,-1.7377,-1.7386,-1.739,-1.7351,-1.7351,-1.7351,-1.7352,0,0,-1.6888,-1.6959,-1.6965,-1.6989,-1.7042,-1.707,-1.7103,-1.7147,-1.7167,-1.7204,-1.7233,-1.7286,-1.7294,-1.7321,-1.7343,-1.7363,-1.738,-1.7368,-1.737,-1.7369,-1.742,-1.7413,-1.7416,-1.739,-1.7391,-1.7392,-1.7416,0,-1.6908,-1.6969,-1.6999,-1.7047,-1.708,-1.7107,-1.7137,-1.7173,-1.7199,-1.7231,-1.726,-1.7297,-1.7304,-1.7321,-1.7342,-1.7373,-1.739,-1.7372,-1.7418,-1.7419,-1.7405,-1.7421,-1.7414,-1.7435,-1.742,-1.742,-1.7421,0,-1.6938,-1.6975,-1.7026,-1.7075,-1.709,-1.7116,-1.7159,-1.719,-1.7231,-1.7248,-1.7278,-1.73,-1.7337,-1.7337,-1.7389,-1.7375,-1.7396,-1.7415,-1.7416,-1.7421,-1.742,-1.7426,-1.7442,-1.7445,-1.7426,-1.7426,-1.7426,0,-1.6931,-1.6993,-1.7032,-1.7052,-1.711,-1.7128,-1.7153,-1.7194,-1.7218,-1.7256,-1.7272,-1.7314,-1.7336,-1.7368,-1.74,-1.7397,-1.7449,-1.7451,-1.7465,-1.7464,-1.7474,-1.7472,-1.7493,-1.7488,-1.7488,-1.7488,-1.7488,0,-1.6949,-1.6979,-1.7029,-1.7053,-1.7088,-1.7123,-1.7157,-1.7184,-1.722,-1.725,-1.7276,-1.7304,-1.7345,-1.7378,-1.7404,-1.7442,-1.7453,-1.7468,-1.7474,-1.7465,-1.7463,-1.7479,-1.7478,-1.7489,-1.7488,-1.7488,-1.7488,0,-1.6946,-1.6981,-1.7025,-1.7076,-1.709,-1.7113,-1.7158,-1.7182,-1.721,-1.7247,-1.7258,-1.7302,-1.7342,-1.7378,-1.7431,-1.7448,-1.7488,-1.7496,-1.7473,-1.7477,-1.7488,-1.7486,-1.7519,-1.7525,-1.7516,-1.7516,-1.7516,0,-1.6955,-1.6979,-1.7033,-1.7054,-1.7079,-1.7114,-1.7139,-1.7175,-1.72,-1.7249,-1.7267,-1.7309,-1.7345,-1.7407,-1.7444,-1.7485,-1.7494,-1.7503,-1.75,-1.7491,-1.7494,-1.7492,-1.7495,-1.7502,-1.7502,-1.7502,-1.7502,0,-1.6967,-1.6983,-1.7018,-1.706,-1.7089,-1.7123,-1.7158,-1.7175,-1.7217,-1.7244,-1.7286,-1.7313,-1.7367,-1.7409,-1.7454,-1.748,-1.7498,-1.7503,-1.7508,-1.7499,-1.7485,-1.7492,-1.7472,-1.7502,-1.7502,-1.7502,-1.7502,-1.7502,-1.697,-1.6993,-1.7034,-1.7073,-1.7103,-1.7135,-1.7161,-1.7192,-1.7227,-1.7273,-1.7293,-1.7334,-1.7376,-1.7438,-1.7464,-1.7498,-1.7501,-1.7509,-1.7511,-1.7512,-1.751,-1.748,-1.7506,-1.7506,-1.7506,-1.7506,-1.7506,0,-1.6984,-1.7012,-1.7047,-1.7095,-1.7125,-1.714,-1.718,-1.7204,-1.7241,-1.7277,-1.7312,-1.7359,-1.74,-1.744,-1.7482,-1.7501,-1.7511,-1.7511,-1.751,-1.7516,-1.7505,-1.7496,-1.7503,-1.7503,-1.7503,-1.7503,-1.7503,-1.7503,-1.6994,-1.7033,-1.7054,-1.7108,-1.7137,-1.7178,-1.7199,-1.7229,-1.7259,-1.731,-1.7344,-1.737,-1.7408,-1.7454,-1.7492,-1.7503,-1.7517,-1.7515,-1.7528,-1.7517,-1.7517,-1.7516,-1.7508,-1.7518,-1.7518,-1.7537,-1.7537,-1.7537]}]]